This is the latest recevied weather packets stored in our database for station/object WB4ROX. If no packets are shown the sender has not sent any weather packets the latest 10 day(s).
| Time | Temp. | Humidity | Pressure | Rain* | Wind** | Luminosity | Snow |
|---|---|---|---|---|---|---|---|
| 1777748658 | 8.33° C | 41% | 1013.7 hPa | 0 mm | - | 856 W/m² | - |
| 1777748354 | 8.33° C | 43% | 1013.9 hPa | 0 mm | - | 829 W/m² | - |
| 1777748049 | 8.33° C | 40% | 1013.8 hPa | 0 mm | - | 824 W/m² | - |
| 1777747747 | 8.33° C | 43% | 1013.8 hPa | 0 mm | - | 942 W/m² | - |
| 1777747442 | 8.33° C | 44% | 1013.6 hPa | 0 mm | - | 833 W/m² | - |
| 1777747139 | 6.67° C | 45% | 1013.9 hPa | 0 mm | - | 937 W/m² | - |
| 1777746835 | 7.22° C | 44% | 1013.8 hPa | 0 mm | - | 381 W/m² | - |
| 1777746530 | 8.33° C | 41% | 1014 hPa | 0 mm | - | 287 W/m² | - |
| 1777746226 | 7.78° C | 45% | 1013.9 hPa | 0 mm | - | 866 W/m² | - |
| 1777745923 | 7.78° C | 46% | 1013.9 hPa | 0 mm | - | 742 W/m² | - |
| 1777745622 | 7.22° C | 45% | 1013.7 hPa | 0 mm | - | 755 W/m² | - |
| 1777745319 | 6.67° C | 48% | 1013.8 hPa | 0 mm | - | 992 W/m² | - |
| 1777745016 | 7.22° C | 44% | 1014 hPa | 0 mm | - | 885 W/m² | - |
| 1777744712 | 6.67° C | 43% | 1013.8 hPa | 0 mm | - | 851 W/m² | - |
| 1777744406 | 6.67° C | 43% | 1014 hPa | 0 mm | - | 565 W/m² | - |
| 1777744103 | 6.67° C | 43% | 1014.1 hPa | 0 mm | - | 571 W/m² | - |
| 1777743801 | 6.11° C | 44% | 1013.9 hPa | 0 mm | - | 921 W/m² | - |
| 1777743497 | 6.67° C | 44% | 1014 hPa | 0 mm | - | 666 W/m² | - |
| 1777743194 | 6.67° C | 44% | 1014.1 hPa | 0 mm | - | 433 W/m² | - |
| 1777742892 | 7.22° C | 42% | 1014.5 hPa | 0 mm | - | 909 W/m² | - |
| 1777742588 | 6.67° C | 43% | 1014.1 hPa | 0 mm | - | 889 W/m² | - |
| 1777742284 | 6.67° C | 45% | 1014.3 hPa | 0 mm | - | 872 W/m² | - |
| 1777741981 | 6.11° C | 45% | 1014.3 hPa | 0 mm | - | 845 W/m² | - |
| 1777741679 | 6.67° C | 42% | 1014.3 hPa | 0 mm | - | 864 W/m² | - |
| 1777741375 | 6.67° C | 44% | 1014.3 hPa | 0 mm | - | 861 W/m² | - |
* Rain latest hour (hover to see other rain measurements)
** Current wind speed in m/s (hover to see current wind gust speed)